Voltar ao catálogo

WESTFORD NEEDLES

AtivoHEO
NORAD 2367·DEBRIS·🇺🇸 United States

Lançado May 9, 1963 de Vandenberg Space Force Base

Loading…

Próximas Passagens (próximas 24 horas)

TLE

AtualizadoSource: Space-Track

Época: Sep 9, 2026, 16:31 UTC

1 02367U 63014S   26252.68852849  .00019480  00000-0  12342-1 0  9994
2 02367  84.1290  35.5863 2870723 351.0578   4.8104  9.16019586 19701

Acompanhe WESTFORD NEEDLES em tempo real com AllMySat

Download on the App Store